EDT,Max TemperatureF,Mean TemperatureF,Min TemperatureF,Max Dew PointF,MeanDew PointF,Min DewpointF,Max Humidity, Mean Humidity, Min Humidity, Max Sea Level PressureIn, Mean Sea Level PressureIn, Min Sea Level PressureIn, Max VisibilityMiles, Mean VisibilityMiles, Min VisibilityMiles, Max Wind SpeedMPH, Mean Wind SpeedMPH, Max Gust SpeedMPH,PrecipitationIn, CloudCover, Events, WindDirDegrees
2013-3-1,33,31,29,29,27,25,92,85,78,29.69,29.63,29.58,10,3,0,14,8,22,0.07,8,Fog-Snow,17
2013-3-2,38,34,29,32,28,24,89,84,78,29.65,29.60,29.57,10,6,0,13,7,20,0.03,8,Fog-Snow,331
2013-3-3,42,38,34,32,30,28,89,73,57,29.61,29.53,29.43,10,10,4,15,6,20,T,8,Snow,328
2013-3-4,37,34,31,34,31,27,96,89,82,29.74,29.49,29.42,10,5,0,16,8,22,0.27,8,Fog-Rain-Snow,345
2013-3-5,40,37,33,34,31,30,89,83,76,30.23,30.02,29.73,10,8,2,15,9,21,0.04,8,Rain-Snow,26
2013-3-6,36,33,30,30,26,19,89,73,56,30.38,30.31,30.20,10,9,2,21,11,26,T,8,Snow,66
2013-3-7,34,32,29,22,21,19,69,64,59,30.35,30.30,30.23,10,10,10,20,12,29,0.00,8,,53
2013-3-8,44,36,27,22,20,18,75,57,39,30.32,30.25,30.19,10,10,2,20,11,30,0.00,2,,30
2013-3-9,41,32,23,22,21,20,81,63,45,30.43,30.35,30.28,10,10,10,15,7,21,0.00,2,,38
2013-3-10,40,30,20,27,22,18,92,68,44,30.45,30.38,30.24,10,10,6,9,3,16,0.00,5,,114
2013-3-11,45,39,32,34,30,26,89,76,62,30.28,30.20,30.13,10,10,8,10,5,17,0.00,6,,170
2013-3-12,49,44,38,45,41,35,100,89,77,30.16,30.05,29.83,10,5,1,10,6,20,0.29,8,Rain,148
2013-3-13,49,41,32,46,37,22,96,78,59,29.78,29.70,29.63,10,7,2,14,7,20,0.18,8,Rain,291
2013-3-14,39,30,21,22,18,10,81,59,37,29.71,29.64,29.59,10,10,10,22,9,33,0.00,4,,282
2013-3-15,30,23,15,10,6,2,67,49,31,29.76,29.68,29.59,10,10,8,18,10,33,0.00,3,,295
2013-3-16,30,24,17,10,7,4,74,54,34,29.88,29.76,29.65,10,10,10,17,7,23,0.00,2,,296
2013-3-17,23,18,12,7,0,-8,67,50,33,30.26,30.02,29.89,10,10,9,26,10,37,T,2,,294
2013-3-18,31,20,8,10,-2,-8,74,51,27,30.40,30.34,30.27,10,10,2,16,6,22,0.00,0,,290
2013-3-19,28,23,18,19,13,0,92,63,33,30.34,30.02,29.78,10,4,0,18,8,25,0.27,5,Fog-Snow,63
2013-3-20,28,23,17,19,15,12,92,74,55,29.79,29.60,29.49,10,4,0,18,9,29,0.20,7,Fog-Snow,316
2013-3-21,39,27,14,18,15,10,88,60,32,29.73,29.68,29.63,10,10,4,10,3,18,0.00,2,,332
2013-3-22,36,23,10,19,15,7,92,68,44,29.64,29.58,29.52,10,10,7,20,8,26,T,2,,292
2013-3-23,37,32,26,27,21,17,75,65,54,29.54,29.44,29.37,10,9,2,22,12,31,T,7,Snow,285
2013-3-24,43,33,23,31,25,19,89,67,45,29.78,29.70,29.55,10,9,2,18,7,25,T,5,Snow,314
2013-3-25,42,34,25,29,25,22,92,69,46,29.81,29.75,29.67,10,10,10,17,6,24,0.00,6,,19
2013-3-26,43,36,28,31,25,20,75,64,53,29.69,29.63,29.59,10,10,6,22,8,29,0.01,4,Rain,335
2013-3-27,41,37,33,36,33,28,96,86,75,29.91,29.74,29.65,10,6,2,14,6,18,0.14,8,Rain-Snow,341
2013-3-28,51,42,33,33,28,22,89,61,32,29.94,29.91,29.89,10,10,10,15,5,20,T,7,,326
2013-3-29,52,45,37,34,29,24,85,60,35,29.99,29.94,29.89,10,10,10,15,5,22,0.00,6,,297
2013-3-30,50,39,28,28,19,11,85,53,21,30.09,30.01,29.97,10,10,10,14,5,17,0.00,0,,304
2013-3-31,53,38,23,22,16,10,88,54,19,30.12,30.04,29.90,10,10,10,12,3,20,0.00,0,,167